TimeCDT,TemperatureF,Dew PointF,Humidity,Sea Level PressureIn,VisibilityMPH,Wind Direction,Wind SpeedMPH,Gust SpeedMPH,PrecipitationIn,Events,Conditions,WindDirDegrees,DateUTC
12:53 AM,50.0,28.9,44,30.04,10.0,North,19.6,31.1,N/A,,Overcast,10,2013-04-01 05:53:00
1:53 AM,46.9,30.0,52,30.09,10.0,NNE,17.3,-,N/A,,Overcast,20,2013-04-01 06:53:00
2:53 AM,44.1,34.0,68,30.12,10.0,NNE,13.8,20.7,N/A,,Partly Cloudy,20,2013-04-01 07:53:00
3:51 AM,41.0,33.8,76,30.14,10.0,North,15.0,-,N/A,,Mostly Cloudy,360,2013-04-01 08:51:00
3:53 AM,41.0,33.8,76,30.14,10.0,North,15.0,-,N/A,,Mostly Cloudy,350,2013-04-01 08:53:00
4:53 AM,39.0,32.0,76,30.18,10.0,North,13.8,23.0,N/A,,Overcast,360,2013-04-01 09:53:00
5:04 AM,37.9,30.9,76,30.18,10.0,North,15.0,25.3,N/A,,Overcast,10,2013-04-01 10:04:00
5:28 AM,37.0,30.0,76,30.19,10.0,North,15.0,25.3,N/A,,Overcast,360,2013-04-01 10:28:00
5:53 AM,37.0,30.0,76,30.21,10.0,North,18.4,23.0,N/A,,Overcast,360,2013-04-01 10:53:00
6:14 AM,36.0,28.9,76,30.22,10.0,NNE,17.3,24.2,N/A,,Overcast,20,2013-04-01 11:14:00
6:32 AM,36.0,28.0,73,30.23,10.0,North,12.7,-,N/A,,Overcast,10,2013-04-01 11:32:00
6:53 AM,35.1,26.1,70,30.25,10.0,North,10.4,-,N/A,,Mostly Cloudy,360,2013-04-01 11:53:00
7:17 AM,33.1,23.0,66,30.26,10.0,North,11.5,-,N/A,,Scattered Clouds,10,2013-04-01 12:17:00
7:53 AM,33.1,19.0,56,30.28,10.0,North,16.1,23.0,N/A,,Clear,360,2013-04-01 12:53:00
8:53 AM,34.0,15.1,46,30.30,10.0,North,17.3,27.6,N/A,,Partly Cloudy,10,2013-04-01 13:53:00
9:53 AM,36.0,17.1,46,30.32,10.0,North,17.3,-,N/A,,Clear,350,2013-04-01 14:53:00
10:53 AM,39.9,17.1,40,30.32,10.0,North,16.1,-,N/A,,Clear,350,2013-04-01 15:53:00
11:53 AM,41.0,18.0,40,30.32,10.0,NE,12.7,-,N/A,,Clear,40,2013-04-01 16:53:00
12:53 PM,43.0,15.1,32,30.31,10.0,North,15.0,20.7,N/A,,Scattered Clouds,10,2013-04-01 17:53:00
1:53 PM,44.1,15.1,31,30.32,10.0,NNE,12.7,-,N/A,,Overcast,20,2013-04-01 18:53:00
2:53 PM,44.6,15.8,31,30.29,10.0,NNE,11.5,18.4,N/A,,Overcast,30,2013-04-01 19:53:00
3:53 PM,45.0,16.0,31,30.28,10.0,NNW,9.2,-,N/A,,Mostly Cloudy,330,2013-04-01 20:53:00
4:53 PM,48.2,17.6,30,30.24,10.0,North,13.8,-,N/A,,Mostly Cloudy,10,2013-04-01 21:53:00
5:53 PM,46.4,15.8,29,30.24,10.0,North,9.2,-,N/A,,Partly Cloudy,10,2013-04-01 22:53:00
6:53 PM,45.0,16.0,31,30.25,10.0,NE,11.5,-,N/A,,Clear,40,2013-04-01 23:53:00
7:53 PM,41.0,16.0,36,30.26,10.0,North,9.2,-,N/A,,Clear,10,2013-04-02 00:53:00
8:53 PM,37.9,17.1,43,30.28,10.0,North,4.6,-,N/A,,Clear,10,2013-04-02 01:53:00
9:53 PM,36.0,17.1,46,30.31,10.0,NNE,6.9,-,N/A,,Clear,20,2013-04-02 02:53:00
10:53 PM,34.0,18.0,52,30.33,10.0,North,6.9,-,N/A,,Clear,10,2013-04-02 03:53:00
11:53 PM,33.1,18.0,54,30.32,10.0,NNE,8.1,-,N/A,,Clear,20,2013-04-02 04:53:00